• In Hungary
  • List of Countries
  • For 7 days
  • Water Temperature
  • Satellite Maps
  • Weather Map
  • News
  • Weather Widgets
  • user-avatar
    Login

    Hourly Weather Pacoltowko

    Today, 22 October, Monday

    Time Temperature Precipitation Wind Pressure Humidity
    00:00 +5°C° 0 mm 2 mps 753 mmHg 88%
    01:00 +4°C° 0 mm 3 mps 753 mmHg 89%
    02:00 +4°C° 0 mm 3 mps 752 mmHg 90%
    03:00 +4°C° 0 mm 3 mps 752 mmHg 91%
    04:00 +3°C° 0 mm 3 mps 752 mmHg 93%
    05:00 +3°C° 0 mm 3 mps 751 mmHg 93%
    06:00 +4°C° 0 mm 3 mps 751 mmHg 93%
    07:00 +4°C° 0 mm 3 mps 751 mmHg 93%
    08:00 +5°C° 0 mm 4 mps 751 mmHg 87%
    09:00 +7°C° 0 mm 4 mps 750 mmHg 80%
    10:00 +8°C° 0 mm 5 mps 750 mmHg 74%
    11:00 +9°C° 0 mm 5 mps 750 mmHg 73%
    12:00 +9°C° 0 mm 5 mps 749 mmHg 72%
    13:00 +10°C° 0 mm 5 mps 749 mmHg 71%
    14:00 +9°C° 0.5 mm 5 mps 749 mmHg 76%
    15:00 +9°C° 0.5 mm 5 mps 749 mmHg 81%
    16:00 +8°C° 0.5 mm 5 mps 748 mmHg 87%
    17:00 +7°C° 0.2 mm 4 mps 749 mmHg 86%
    18:00 +7°C° 0.2 mm 4 mps 749 mmHg 85%
    19:00 +6°C° 0.2 mm 4 mps 749 mmHg 84%
    20:00 +5°C° 0 mm 4 mps 749 mmHg 84%
    21:00 +5°C° 0 mm 3 mps 749 mmHg 84%
    22:00 +4°C° 0 mm 3 mps 749 mmHg 84%
    23:00 +4°C° 0 mm 3 mps 749 mmHg 84%

    Tomorrow, 23 October, Tuesday

    Time Temperature Precipitation Wind Pressure Humidity
    00:00 +4°C° 0 mm 3 mps 749 mmHg 83%
    01:00 +4°C° 0 mm 4 mps 749 mmHg 82%
    02:00 +4°C° 0 mm 4 mps 748 mmHg 84%
    03:00 +3°C° 0 mm 4 mps 748 mmHg 85%
    04:00 +3°C° 0 mm 4 mps 747 mmHg 86%
    05:00 +3°C° 0.1 mm 5 mps 746 mmHg 85%
    06:00 +3°C° 0.1 mm 5 mps 745 mmHg 84%
    07:00 +3°C° 0.1 mm 6 mps 745 mmHg 83%
    08:00 +3°C° 0.2 mm 7 mps 743 mmHg 81%
    09:00 +4°C° 0.2 mm 8 mps 742 mmHg 78%
    10:00 +5°C° 0.2 mm 8 mps 741 mmHg 75%
    11:00 +3°C° 1.2 mm 9 mps 739 mmHg 77%
    12:00 +3°C° 1.2 mm 9 mps 738 mmHg 79%
    13:00 +3°C° 1.2 mm 10 mps 736 mmHg 81%
    14:00 +5°C° 1.6 mm 10 mps 734 mmHg 83%
    15:00 +6°C° 1.6 mm 10 mps 733 mmHg 84%
    16:00 +6°C° 1.6 mm 10 mps 731 mmHg 86%
    17:00 +7°C° 0.9 mm 9 mps 731 mmHg 84%
    18:00 +7°C° 0.9 mm 9 mps 730 mmHg 82%
    19:00 +7°C° 0.9 mm 8 mps 729 mmHg 80%
    20:00 +7°C° 0.1 mm 8 mps 729 mmHg 78%
    21:00 +6°C° 0.1 mm 8 mps 729 mmHg 76%
    22:00 +6°C° 0.1 mm 8 mps 729 mmHg 75%
    23:00 +5°C° 0.1 mm 8 mps 728 mmHg 74%

    Day after tomorrow, 24 October, Wednesday

    Time Temperature Precipitation Wind Pressure Humidity
    00:00 +5°C° 0.1 mm 8 mps 728 mmHg 73%
    01:00 +5°C° 0.1 mm 8 mps 727 mmHg 72%
    02:00 +4°C° 0.3 mm 8 mps 728 mmHg 68%
    03:00 +3°C° 0.3 mm 9 mps 728 mmHg 64%
    04:00 +3°C° 0.3 mm 9 mps 728 mmHg 61%
    05:00 +2°C° 0 mm 9 mps 729 mmHg 61%
    06:00 +2°C° 0 mm 10 mps 729 mmHg 62%
    07:00 +1°C° 0 mm 10 mps 730 mmHg 63%
    08:00 +2°C° 0.1 mm 10 mps 731 mmHg 62%
    09:00 +3°C° 0.1 mm 11 mps 731 mmHg 61%
    10:00 +3°C° 0.1 mm 11 mps 732 mmHg 60%
    11:00 +3°C° 0.1 mm 11 mps 733 mmHg 58%
    12:00 +4°C° 0.1 mm 12 mps 733 mmHg 56%
    13:00 +4°C° 0.1 mm 12 mps 734 mmHg 55%
    14:00 +4°C° 0.1 mm 12 mps 734 mmHg 56%
    15:00 +3°C° 0.1 mm 11 mps 735 mmHg 58%
    16:00 +3°C° 0.1 mm 11 mps 735 mmHg 59%
    17:00 +3°C° 0.1 mm 10 mps 736 mmHg 61%
    18:00 +3°C° 0.1 mm 10 mps 737 mmHg 62%
    19:00 +3°C° 0.1 mm 9 mps 738 mmHg 64%
    20:00 +3°C° 0 mm 9 mps 738 mmHg 65%
    21:00 +4°C° 0 mm 8 mps 739 mmHg 66%
    22:00 +4°C° 0 mm 8 mps 739 mmHg 67%
    23:00 +4°C° 0 mm 7 mps 740 mmHg 68%

    25 October, Thursday

    Time Temperature Precipitation Wind Pressure Humidity
    00:00 +3°C° 0 mm 7 mps 740 mmHg 69%
    01:00 +3°C° 0 mm 6 mps 741 mmHg 71%
    02:00 +3°C° 0 mm 6 mps 741 mmHg 72%
    03:00 +2°C° 0 mm 5 mps 741 mmHg 74%
    04:00 +2°C° 0 mm 5 mps 741 mmHg 75%
    05:00 +2°C° 0 mm 5 mps 741 mmHg 75%
    06:00 +2°C° 0 mm 5 mps 741 mmHg 75%
    07:00 +1°C° 0 mm 5 mps 741 mmHg 75%
    08:00 +3°C° 0 mm 5 mps 741 mmHg 73%
    09:00 +5°C° 0 mm 5 mps 741 mmHg 70%
    10:00 +5°C° 0 mm 6 mps 741 mmHg 67%
    11:00 +5°C° 0.3 mm 6 mps 740 mmHg 74%
    12:00 +5°C° 0.3 mm 7 mps 739 mmHg 80%
    13:00 +5°C° 0.3 mm 7 mps 739 mmHg 87%
    14:00 +5°C° 0.4 mm 7 mps 738 mmHg 86%
    15:00 +6°C° 0.4 mm 7 mps 738 mmHg 86%
    16:00 +8°C° 0.4 mm 7 mps 737 mmHg 86%
    17:00 +8°C° 0.2 mm 7 mps 737 mmHg 85%
    18:00 +9°C° 0.2 mm 7 mps 737 mmHg 84%
    19:00 +9°C° 0.2 mm 7 mps 737 mmHg 84%
    20:00 +8°C° 0.1 mm 7 mps 737 mmHg 84%
    21:00 +8°C° 0.1 mm 6 mps 737 mmHg 84%
    22:00 +7°C° 0.1 mm 6 mps 737 mmHg 84%
    23:00 +7°C° 0.1 mm 5 mps 737 mmHg 85%

    26 October, Friday

    Time Temperature Precipitation Wind Pressure Humidity
    00:00 +7°C° 0.1 mm 5 mps 737 mmHg 86%
    01:00 +7°C° 0.1 mm 5 mps 737 mmHg 87%
    02:00 +7°C° 0.1 mm 5 mps 738 mmHg 88%
    03:00 +7°C° 0.1 mm 5 mps 738 mmHg 89%
    04:00 +7°C° 0.1 mm 5 mps 738 mmHg 90%
    05:00 +7°C° 0.1 mm 5 mps 738 mmHg 91%
    06:00 +7°C° 0.1 mm 5 mps 738 mmHg 91%
    07:00 +7°C° 0.1 mm 5 mps 738 mmHg 92%
    08:00 +8°C° 0 mm 5 mps 738 mmHg 89%
    09:00 +8°C° 0 mm 5 mps 738 mmHg 86%
    10:00 +8°C° 0 mm 5 mps 738 mmHg 84%
    11:00 +9°C° 0 mm 5 mps 738 mmHg 80%
    12:00 +9°C° 0 mm 6 mps 738 mmHg 76%
    13:00 +10°C° 0 mm 6 mps 737 mmHg 72%
    14:00 +9°C° 0 mm 5 mps 737 mmHg 73%
    15:00 +9°C° 0 mm 5 mps 737 mmHg 74%
    16:00 +9°C° 0 mm 5 mps 737 mmHg 75%
    17:00 +9°C° 0 mm 5 mps 736 mmHg 77%
    18:00 +8°C° 0 mm 4 mps 736 mmHg 79%
    19:00 +8°C° 0 mm 4 mps 736 mmHg 81%
    20:00 +8°C° 0 mm 5 mps 736 mmHg 81%
    21:00 +8°C° 0 mm 5 mps 736 mmHg 81%
    22:00 +8°C° 0 mm 5 mps 735 mmHg 81%
    23:00 +8°C° 0 mm 5 mps 735 mmHg 83%

    27 October, Saturday

    Time Temperature Precipitation Wind Pressure Humidity
    00:00 +8°C° 0 mm 5 mps 735 mmHg 84%
    01:00 +8°C° 0 mm 5 mps 735 mmHg 85%
    02:00 +7°C° 0 mm 5 mps 735 mmHg 86%
    03:00 +7°C° 0 mm 4 mps 734 mmHg 88%
    04:00 +7°C° 0 mm 4 mps 734 mmHg 89%
    05:00 +6°C° 0 mm 4 mps 734 mmHg 90%
    06:00 +7°C° 0 mm 3 mps 735 mmHg 92%
    07:00 +7°C° 0 mm 3 mps 735 mmHg 93%
    08:00 +7°C° 0 mm 3 mps 735 mmHg 86%
    09:00 +7°C° 0 mm 4 mps 735 mmHg 78%
    10:00 +8°C° 0 mm 4 mps 735 mmHg 71%
    11:00 +8°C° 0.1 mm 4 mps 735 mmHg 70%
    12:00 +9°C° 0.1 mm 3 mps 734 mmHg 70%
    13:00 +9°C° 0.1 mm 3 mps 734 mmHg 69%
    14:00 +9°C° 0.5 mm 3 mps 734 mmHg 73%
    15:00 +8°C° 0.5 mm 2 mps 734 mmHg 78%
    16:00 +8°C° 0.5 mm 2 mps 734 mmHg 83%
    17:00 +7°C° 0.5 mm 2 mps 733 mmHg 84%
    18:00 +7°C° 0.5 mm 2 mps 733 mmHg 85%
    19:00 +7°C° 0.5 mm 2 mps 733 mmHg 85%
    20:00 +6°C° 0.3 mm 2 mps 733 mmHg 84%
    21:00 +6°C° 0.3 mm 2 mps 733 mmHg 83%
    22:00 +6°C° 0.3 mm 2 mps 733 mmHg 81%
    23:00 +6°C° 0.4 mm 2 mps 733 mmHg 82%

    28 October, Sunday

    Time Temperature Precipitation Wind Pressure Humidity
    00:00 +6°C° 0.4 mm 2 mps 733 mmHg 82%
    01:00 +5°C° 0.4 mm 2 mps 733 mmHg 82%
    02:00 +5°C° 0.2 mm 2 mps 734 mmHg 83%
    03:00 +5°C° 0.2 mm 2 mps 734 mmHg 83%
    04:00 +5°C° 0.2 mm 2 mps 734 mmHg 83%
    05:00 +5°C° 0 mm 2 mps 735 mmHg 84%
    06:00 +5°C° 0 mm 2 mps 735 mmHg 85%
    07:00 +5°C° 0 mm 2 mps 736 mmHg 86%
    08:00 +6°C° 0 mm 2 mps 736 mmHg 83%
    09:00 +7°C° 0 mm 2 mps 737 mmHg 79%
    10:00 +8°C° 0 mm 2 mps 737 mmHg 76%
    11:00 +8°C° 0 mm 2 mps 738 mmHg 73%
    12:00 +9°C° 0 mm 2 mps 738 mmHg 70%
    13:00 +9°C° 0 mm 2 mps 738 mmHg 68%
    14:00 +10°C° 0 mm 1 mps 739 mmHg 70%
    15:00 +9°C° 0 mm 1 mps 739 mmHg 73%
    16:00 +9°C° 0 mm 1 mps 739 mmHg 75%
    17:00 +8°C° 0 mm 1 mps 740 mmHg 77%
    18:00 +8°C° 0 mm 1 mps 740 mmHg 79%
    19:00 +7°C° 0 mm 1 mps 740 mmHg 81%
    20:00 +7°C° 0 mm 1 mps 741 mmHg 83%
    21:00 +7°C° 0 mm 1 mps 741 mmHg 84%
    22:00 +6°C° 0 mm 1 mps 742 mmHg 85%
    23:00 +6°C° 0 mm 1 mps 742 mmHg 86%
    Show more